Flag for Germany Weather past 2 weeks in Radebeul, Saxony, Germany

Now
47 °F

Light rain. Low clouds.


Feels Like: 44 °F
Forecast: 42 / 56 °F
Wind: 7 mph from Northwest

Location: Dresden-Klotzsche

Current Time: Sep 22, 2014 at 10:24:58 PM

Latest Report: Sep 22, 2014 at 10:00 PM


Visibility: 4 mi

Pressure: 29.95 "Hg

Humidity: 97%

Dew point: 47 °F

Location of RadebeulLocation

Historic Weather in Radebeul — Graph

°F

Radebeul temperature yesterday

Maximum temperature yesterday: 63 °F (at 4:00 PM)
Minimum temperature yesterday: 56 °F (at 10:00 PM)
Average temperature yesterday: 60 °F

Past Weeks' High & Low Weather Summary

 TemperatureHumidityPressure
High76 °F (Sep 16, 3:00 PM)100% (Sep 15, 8:00 AM)30.13 "Hg (Sep 15, 8:00 AM)
Low47 °F (Sep 22, 5:00 PM)45% (Sep 17, 3:00 PM)29.84 "Hg (Sep 21, 5:00 PM)
Average61 °F85%30.00 "Hg
* Reported Sep 7 9:00 PM — Sep 22 9:00 PM, Radebeul, Weather by CustomWeather, © 2014

Note: Actual official high and low records may vary slightly from our data, if they occured in-between our weather recording intervals... More about our weather records

Advertising

Radebeul weather history for previous 24 hours

 ConditionsComfort  
Time TempWeatherWind HumidityBarometerVisibility
9:00 PM
Sep 22
47 °FLight rain. Low clouds.6 mph95%29.95 "Hg6 mi
8:00 PM48 °FLight rain. Overcast.5 mph91%29.94 "Hg11 mi
7:00 PM49 °FOvercast.6 mph86%29.93 "Hg22 mi
6:00 PM49 °FPartly sunny.6 mph85%29.90 "Hg16 mi
5:00 PM47 °FRain showers. Overcast.8 mph87%29.90 "Hg3 mi
4:00 PM53 °FOvercast.8 mph81%29.86 "Hg6 mi
3:00 PM52 °FPartly sunny.7 mph83%29.86 "Hg16 mi
2:00 PM52 °FOvercast.6 mph87%29.86 "Hg6 mi
1:00 PM53 °FOvercast.6 mph86%29.87 "Hg7 mi
12:00 PM54 °FOvercast.6 mph85%29.87 "Hg7 mi
11:00 AM53 °FOvercast.8 mph88%29.88 "Hg6 mi
10:00 AM54 °FOvercast.8 mph84%29.88 "Hg8 mi
9:00 AM53 °FOvercast.7 mph86%29.88 "Hg8 mi
8:00 AM52 °FOvercast.7 mph88%29.90 "Hg6 mi
7:00 AM52 °FPartly sunny.6 mph87%29.90 "Hg6 mi
6:00 AM53 °FOvercast.7 mph88%29.88 "Hg7 mi
5:00 AM53 °FOvercast.7 mph90%29.87 "Hg6 mi
4:00 AM53 °FOvercast.6 mph91%29.88 "Hg6 mi
3:00 AM52 °FPassing clouds.6 mph92%29.90 "Hg5 mi
2:00 AM53 °FOvercast.7 mph91%29.90 "Hg9 mi
1:00 AM54 °FOvercast.5 mph93%29.90 "Hg11 mi
12:00 AM56 °FOvercast.7 mph94%29.89 "Hg9 mi
10:00 PM
Sep 21
56 °FLight rain. Overcast.3 mph97%29.89 "Hg6 mi
Weather by CustomWeather, © 2014

See weather overviewHow to use our weather pages